This is the latest recevied weather packets stored in our database for station/object KQ7A. If no packets are shown the sender has not sent any weather packets the latest 10 day(s).
| Time | Temp. | Humidity | Pressure | Rain* | Wind** | Luminosity | Snow |
|---|---|---|---|---|---|---|---|
| 1788365198 | 14.44° C | 47% | 1018.3 hPa | 0 mm | - | 183 W/m² | - |
| 1788364892 | 13.89° C | 49% | 1018.3 hPa | 0 mm | - | 150 W/m² | - |
| 1788364591 | 13.89° C | 45% | 1018.5 hPa | 0 mm | - | 141 W/m² | - |
| 1788364290 | 13.89° C | 45% | 1018.3 hPa | 0 mm | - | 117 W/m² | - |
| 1788363985 | 13.89° C | 45% | 1018.2 hPa | 0 mm | - | 117 W/m² | - |
| 1788363680 | 13.89° C | 46% | 1018.6 hPa | 0 mm | - | 116 W/m² | - |
| 1788363379 | 13.89° C | 46% | 1018.6 hPa | 0 mm | - | 107 W/m² | - |
| 1788363074 | 13.89° C | 47% | 1018.4 hPa | 0 mm | - | 103 W/m² | - |
| 1788362771 | 13.33° C | 46% | 1018.8 hPa | 0 mm | - | 138 W/m² | - |
| 1788362466 | 12.78° C | 49% | 1018.5 hPa | 0 mm | - | 113 W/m² | - |
| 1788362162 | 12.78° C | 52% | 1018.4 hPa | 0 mm | - | 72 W/m² | - |
| 1788361861 | 13.33° C | 50% | 1018.3 hPa | 0 mm | - | 69 W/m² | - |
| 1788361556 | 13.89° C | 45% | 1018.6 hPa | 0 mm | - | 85 W/m² | - |
| 1788361251 | 13.89° C | 45% | 1018.6 hPa | 0 mm | - | 138 W/m² | - |
| 1788360941 | 14.44° C | 41% | 1018.5 hPa | 0 mm | - | 115 W/m² | - |
| 1788360640 | 15.56° C | 41% | 1018.5 hPa | 0 mm | - | 143 W/m² | - |
| 1788360338 | 14.44° C | 44% | 1018.6 hPa | 0 mm | - | 115 W/m² | - |
| 1788360037 | 13.33° C | 44% | 1018.4 hPa | 0 mm | - | 89 W/m² | - |
| 1788359732 | 12.22° C | 47% | 1018.4 hPa | 0 mm | - | 77 W/m² | - |
| 1788359428 | 10.56° C | 54% | 1018.3 hPa | 0 mm | - | 78 W/m² | - |
| 1788359123 | 8.89° C | 55% | 1018.3 hPa | 0 mm | - | 57 W/m² | - |
| 1788358819 | 8.89° C | 57% | 1018.3 hPa | 0 mm | - | 47 W/m² | - |
| 1788358518 | 8.89° C | 54% | 1017.9 hPa | 0 mm | - | 31 W/m² | - |
| 1788358214 | 8.33° C | 54% | 1018.1 hPa | 0 mm | - | 23 W/m² | - |
| 1788357908 | 8.33° C | 56% | 1017.9 hPa | 0 mm | - | 19 W/m² | - |
* Rain latest hour (hover to see other rain measurements)
** Current wind speed in m/s (hover to see current wind gust speed)